Regional Weather Roundup
Issued by NWS Midland/Odessa, TX

Home | Current Version | Previous Version | Text Only | Print | Product List | Glossary On
Versions: 1 2 3 4 5 6 7 8 9 10 11 12 13 14 15 16 17 18 19 20 21 22 23 24 25 26 27 28 29 30 31 32 33 34 35 36 37 38 39 40 41 42 43 44 45 46 47 48 49 50
618
ASUS44 KMAF 041810
RWRMAF
MIDLAND AREA WEATHER ROUNDUP
NATIONAL WEATHER SERVICE MIDLAND TX
100 PM CDT WED MAY 04 2016

...IN SOUTHWEST TEXAS AND SOUTHEAST NEW MEXICO...

CITY           SKY/WX    TMP DP  RH WIND       PRES   REMARKS
ALPINE         SUNNY     74  25  16 NE12G17   30.32F
ANDREWS        FAIR      77  34  20 N9G17     30.21F
ARTESIA        SUNNY     75  32  20 E8        30.24F
BIG SPRING     SUNNY     75  35  23 N14       30.20F
CARLSBAD       SUNNY     77  27  15 VRB6      30.22F
DRYDEN           N/A     83  39  21 NE9       30.16F
FORT STOCKTON  SUNNY     77  34  21 VRB3      30.22F
GUAD PASS      SUNNY     70  28  21 E13G21    30.32S
HOBBS          SUNNY     75  25  15 N5        30.24F
MARFA          SUNNY     73  31  21 NE13      30.29F
MIDLAND AIRPK  SUNNY     79  28  15 NE10      30.20F
MIDLAND INTL   SUNNY     79  32  18 N10G16    30.20F
ODESSA         SUNNY     80  30  16 MISG      30.21F
PECOS          SUNNY     77  35  21 E5        30.21F
PRESIDIO       FAIR      82  38  20 N8        30.18F
SEMINOLE       SUNNY     76  29  18 NW3       30.22F
SNYDER           N/A     74  39  27 NW9G22    30.18F
WINK           SUNNY     80  30  16 E7        30.19F
$$
...OTHER STATIONS IN TEXAS...

CITY           SKY/WX    TMP DP  RH WIND       PRES   REMARKS
ABILENE        SUNNY     74  46  36 N5        30.15F
AMARILLO       SUNNY     74  34  23 NE8       30.21F
AUSTIN         MOSUNNY   81  54  39 N14       30.07F
BROWNSVILLE    SUNNY     82  50  32 N12G18    30.07F
CORPUS CHRISTI MOSUNNY   84  45  25 NE8       30.08F
DALLAS FTW     SUNNY     78  49  35 NW20      30.04F
DEL RIO        SUNNY     80  54  40 VRB3      30.12F
EL PASO        SUNNY     79  25  13 SE10      30.22F
HOUSTON INT    MOSUNNY   78  52  40 NW8G16    30.04F
LUBBOCK        SUNNY     77  32  19 VRB6G21   30.19F
SAN ANGELO     SUNNY     77  46  33 NW12      30.16F
SAN ANTONIO    MOSUNNY   81  54  39 W8        30.09F
WACO           SUNNY     81  50  33 W10       30.06F
WICHITA FALLS  NOT AVBL
$$
...OTHER LOCATIONS IN NEW MEXICO...

CITY           SKY/WX    TMP DP  RH WIND       PRES   REMARKS
ALAMAGORDO     SUNNY     72  28  20 CALM      30.26F
ALBUQUERQUE    MOSUNNY   70  29  21 SW6       30.31F
CANNON AFB     SUNNY     73  29  19 N9G21     30.24F
CLOVIS         SUNNY     73  36  25 N13       30.25F
HOLLOMAN AFB   SUNNY     74  29  19 SE1       30.24F
ROSWELL        SUNNY     76  29  17 VRB5      30.24F
RUIDOSO          N/A     64  10  12 S3        30.39F
SANTA FE       SUNNY     69  21  16 MISG      30.34F
TRUTH OR CONSE SUNNY     73  29  19 SE7       30.27F
TUCUMCARI      SUNNY     76  28  17 VRB6      30.23F
$$




USA.gov is the U.S. government's official web portal to all federal, state and local government web resources and services.